Voltar ao catálogo

STARLINK-3838

AtivoComunicaçõesVLEO
NORAD 52352·PAYLOAD·🇺🇸 United States

Lançado Apr 29, 2022 de Cape Canaveral Space Force Station

Loading…

Próximas Passagens (próximas 24 horas)

TLE

AtualizadoSource: CelesTrak SupGP

Época: Sep 14, 2026, 21:38 UTC

1 52352C 22045X   26257.90187500  .00053210  00000+0  15727-2 0  2573
2 52352  53.1597  61.9649 0001203  80.2125 168.3527 15.34351750    15

Acompanhe STARLINK-3838 em tempo real com AllMySat

Download on the App Store